www.pogodaiklimat.ru

Погода и климат >> Архив погоды >> Латвия >> Елгава


ПОГОДА в Елгаве

  • Прогноз погоды в Елгаве
  • Монитор погоды в Елгаве

АРХИВ ПОГОДЫ в Елгаве

Время (UTC), дата Ветер
(напр.,м/с)
 
Видим.   Явления Облачность Т
(С)
Тd
(С)
f
(%)
Тe
(С)
Тes
(С)
Комфортность P
(гПа)
Po
(гПа)
Тmin
(С)
Tmax
(С)
R
(мм)
R24
(мм)
S
(см)
09 17.09 З 6 н/о н/о +13.8 +7.1 64 +12 +12 1000.7 999.8
12 17.09 ЮЗ 5 н/о н/о +15.2 +5.2 51 +14 +14 999.1 998.3
15 17.09 ЮЗ 2 н/о н/о +10.8 +7.2 78 +10 +10 998.1 997.2
18 17.09 ЮЗ 4 н/о н/о +9.0 +7.0 87 +6 +6 996.8 995.9
21 17.09 ЮЗ 2 н/о н/о +6.7 +6.2 97 +4 +4 996.6 995.8
00 18.09 З 2 н/о н/о +5.8 +5.6 99 +3 +3 997.2 996.3
03 18.09 н/о н/о +7.5 +6.9 96 998.8 997.9
09 18.09 С 1 н/о н/о +10.9 +7.3 78 +11 +11 1003.5 1002.7
12 18.09 СЗ 3 н/о н/о +11.5 +8.4 81 +10 +10 1005.5 1004.6
15 18.09 З 3 н/о н/о +10.6 +8.3 86 +9 +9 1007.2 1006.3
18 18.09 СЗ 2 н/о н/о +9.1 +7.6 90 +7 +7 1009.4 1008.5
21 18.09 СЗ 2 н/о н/о +7.4 +6.4 93 +5 +5 1011.2 1010.3
00 19.09 З 3 н/о н/о +7.5 +6.2 91 +5 +5 1012.5 1011.6
03 19.09 З 1 н/о н/о +5.0 +4.5 97 +4 +4 1013.4 1012.5
06 19.09 З 3 н/о н/о +6.7 +5.8 94 +3 +3 1014.6 1013.7
09 19.09 ЮЗ 1 н/о н/о +9.8 +6.6 80 +9 +9 1015.9 1015.0
12 19.09 З 3 н/о н/о +11.4 +6.5 72 +10 +10 1015.8 1014.9
15 19.09 З 4 н/о н/о +10.4 +6.1 75 +8 +8 1015.9 1015.0
18 19.09 З 3 н/о н/о +8.1 +6.9 92 +5 +5 1016.1 1015.2
21 19.09 СЗ 3 н/о н/о +7.5 +6.3 92 +5 +5 1017.0 1016.1
00 20.09 З 3 н/о н/о +6.6 +5.9 95 +3 +3 1017.8 1016.9
03 20.09 С 1 н/о н/о +5.8 +4.9 94 +4 +4 1018.7 1017.8
06 20.09 СЗ 3 н/о н/о +6.3 +4.1 86 +3 +3 1020.2 1019.2
09 20.09 СЗ 2 н/о н/о +9.3 +4.1 70 +8 +8 1021.3 1020.4
12 20.09 З 3 н/о н/о +10.9 +5.4 69 +9 +9 1020.9 1020.0
15 20.09 С 5 н/о н/о +9.3 +4.7 73 +6 +6 1020.6 1019.7
18 20.09 Ю 2 н/о н/о +6.2 +5.3 94 +4 +4 1019.8 1018.9
21 20.09 ЮЗ 2 н/о н/о +6.0 +4.3 89 +4 +4 1018.9 1017.9
00 21.09 Ю 4 н/о н/о +7.0 +5.2 88 +3 +3 1017.0 1016.1
03 21.09 ЮЗ 5 н/о н/о +8.3 +7.4 94 +4 +4 1014.6 1013.7
06 21.09 З 4 н/о н/о +10.0 +9.4 96 +7 +7 1013.6 1012.7
09 21.09 ЮЗ 4 н/о н/о +13.2 +12.2 94 +11 +11 1012.4 1011.5
12 21.09 СЗ 4 н/о н/о +16.0 +11.4 74 +15 +15 1012.5 1011.6
15 21.09 З 3 н/о н/о +15.9 +10.6 71 +15 +15 1012.1 1011.2
18 21.09 СЗ 4 н/о н/о +13.3 +9.2 76 +12 +12 1013.5 1012.6
21 21.09 З 4 н/о н/о +11.3 +9.4 88 +9 +9 1013.8 1012.9
00 22.09 З 4 н/о н/о +11.7 +9.9 89 +9 +9 1013.6 1012.7
03 22.09 З 4 н/о н/о +12.3 +10.0 86 +10 +10 1013.0 1012.1
06 22.09 З 2 н/о н/о +12.8 +10.8 88 +12 +12 1013.6 1012.7
09 22.09 СВ 4 н/о н/о +9.7 +8.8 94 +7 +7 1015.0 1014.2
12 22.09 СВ 3 н/о н/о +6.6 +5.7 94 +3 +3 1017.0 1016.1
15 22.09 З 1 н/о н/о +6.4 +4.6 88 +5 +5 1017.5 1016.6
18 22.09 З 2 н/о н/о +3.0 +3.0 100 -0 -0 1019.3 1018.4
21 22.09 С 1 н/о н/о +1.4 +1.3 99 -1 -1 1021.1 1020.1
00 23.09 штиль 0 н/о н/о -0.2 -0.2 100 -2 -2 1022.7 1021.7
03 23.09 штиль 0 н/о н/о -1.3 -1.5 99 -3 -3 1023.4 1022.5
06 23.09 штиль 0 н/о н/о +2.2 +1.6 96 +1 +1 1024.6 1023.7
09 23.09 З 1 н/о н/о +9.5 +2.2 60 +9 +9 1024.9 1024.0
12 23.09 СВ 2 н/о н/о +10.8 +2.0 55 +10 +10 1024.0 1023.1
15 23.09 З 1 н/о н/о +9.9 +2.8 61 +10 +10 1022.9 1022.0
18 23.09 штиль 0 н/о н/о +4.3 +3.4 94 +3 +3 1023.0 1022.1
21 23.09 штиль 0 н/о н/о +2.7 +2.6 99 +1 +1 1022.9 1022.0
00 24.09 штиль 0 н/о н/о +1.5 +1.5 100 0 0 1022.6 1021.7
03 24.09 Ю 1 н/о н/о +0.3 +0.3 100 -2 -2 1022.2 1021.2
06 24.09 штиль 0 н/о н/о +1.0 +0.9 99 -0 -0 1022.0 1021.1

 

Местоположение метеостанции Елгава (Латвия): широта 56.65 долгота 23.73 высота над уровнем моря 9 м.

В архиве по умолчанию представлена погода в Елгаве за последнюю неделю. Архивные данные за месяц целиком и за предыдущие месяцы, начиная с января 2011 года, Вы можете получить, выбрав интересующий диапазон дат из раскрывающегося списка и нажав кнопку "Ввод!".


*Определитесь, кто Вы:
робот инопланетянин человек

Внимание! Время в таблицах - всемирное. Для получения местного времени необходимо прибавить поправку, которая равна 2 ч.

Смотрите также архив погоды в соседних городах и на ближайших метеорологических станциях:

Погода в Добеле (Латвия) (25 км)
Погода в Риге (Латвия) (41 км)
Погода в Бауске (Латвия) (41 км)
Погода в Салдусе (Латвия) (75 км)
Погода в Биржае (Литва) (81 км)
Погода в Шяуляе (Литва) (84 км)
Погода в Скульте (Латвия) (85 км)
Погода в Скриверу (Латвия) (86 км)
Погода в Мерсрагсе (Латвия) (86 км)
Погода в Мажейкяе (Литва) (93 км)

Пояснения к столбцам:

Ветер - указаны скорость ветра в м/с - средняя за 10 мин, порывы в срок и между сроками (в фигурных скобках) и направление, откуда дует ветер: С - северный, СВ - северо-восточный, В - восточный, ЮВ - юго-восточный, Ю - южный, ЮЗ - юго-западный, З - западный, СЗ - северо-западный.
Видимость - горизонтальная дальность видимости в метрах или километрах. При видимости от 1 до 10 км при отсутствии осадков обычно наблюдается дымка, при ухудшении видимости до 1 км и менее - туман. В сухую погоду видимость может ухудшаться дымом, пылью или мглою.
Явления - указаны атмосферные явления, наблюдавшиеся в срок или в последний час перед сроком; фигурными скобками обозначены явления, наблюдавшиеся между сроками (за 1-3 часа до срока); квадратными скобками обозначены град или гололедные отложения с указанием их диаметра в мм.
Облачность - указаны через наклонную черту общая и нижняя облачность в баллах и высота нижней границы облаков в метрах; квадратными скобками обозначены формы облаков: Ci - перистые, Cs - перисто-слоистые, Cc - перисто-кучевые, Ac - высококучевые, As - высокослоистые, Sc - слоисто-кучевые, Ns - слоисто-дождевые, Cu - кучевые, Cb - кучево-дождевые. Подробнее классификацию облаков см. в Атласе облаков (PDF).
T - Температура воздуха - температура, измеренная на высоте 2 м над землей.
Td - Температура точки росы - температура, при понижении до которой содержащийся в воздухе водяной пар достигнет насыщения.
f - Относительная влажность воздуха - влажноcть воздуха, измеренная на высоте 2 м над землей.
Te - Эффективная температура - температура, которую ощущает одетый по сезону человек в тени. Характеристика душности погоды. При расчете учитывается влияние влажности воздуха и скорости ветра на теплоощущения человека.
Tes - Эффективная температура на солнце - температура, которую ощущает человек, с поправкой на солнечный нагрев. Характеристика знойности погоды. Зависит от высоты солнца над горизонтом, облачности и скорости ветра. Ночью, в пасмурную погоду, а также при ветре 12 м/с и более поправка равна нулю.
P - Атмосферное давление - приведенное к уровню моря атмосферное давление.
Po - Атмосферное давление - измеренное на уровне метеостанции атмосферное давление.
Tmin - Минимальная температура - минимум температуры воздуха на высоте 2 м над землей.
Tmax - Максимальная температура - максимум температуры воздуха на высоте 2 м над землей.
R - Количество осадков - Количество выпавших осадков за период времени, мм. При наведении курсора мыши на число - период времени, за который выпало указанное количество осадков.
R24 - Количество осадков - Количество выпавших осадков за 24 часа, мм.
S - Снежный покров - Высота снежного покрова, см. При наведении курсора мыши на число - состояние снежного покрова и степень покрытия местности в баллах.